Tracking 19242 objects as of 15-Aug-2018
HD Live streaming from Space Station
objects crossing your sky now

OICETS

Track OICETS now!
10-day predictions
OICETS is classified as:


NORAD ID: 28809
Int'l Code: 2005-031A
Perigee: 564.5 km
Apogee: 583.5 km
Inclination: 98.0 °
Period: 96.0 minutes
Semi major axis: 6945 km
RCS: 1.711 m2 (large)
Launch date: August 23, 2005
Source: Japan (JPN)
Launch site: TYURATAM MISSILE AND SPACE COMPLEX (TTMTR)

Study inter-satellite communications.
aabbcc
Your satellite tracking list
Your tracking list is empty




NASA's NSSDC Master Catalog

Two Line Element Set (TLE):
1 28809U 05031A   18225.86540151 +.00000765 +00000-0 +66567-4 0  9996
2 28809 097.9562 312.1136 0013692 345.6743 014.4089 15.00005103707484
Source of the keplerian elements: AFSPC